Zurück zum Katalog

KUIPER-00446

AktivKommunikationLEO
NORAD 68944·PAYLOAD·🇺🇸 United States

Gestartet Apr 30, 2026 von Guiana Space Centre

Loading…

Nächste Überflüge (nächste 24 Stunden)

TLE

AktuellSource: CelesTrak SupGP

Epoche: Sep 14, 2026, 21:18 UTC

1 68944C 26098AB  26257.88783565  .00003297  00000+0  43173-3 0  2576
2 68944  51.9001  16.5200 0000686 238.0356  24.6871 14.79917701    15

Verfolge KUIPER-00446 in Echtzeit mit AllMySat

Download on the App Store